[[{"header":{"parameterUnit":"m.s-1","parameterCategory":1,"la1":30.2992,"la2":30.254,"lo1":-89.0895,"lo2":-89.0443,"dy":0.0025,"dx":0.0025,"nx":19,"ny":19,"refTime":"2026-03-20T21:00:00:Z","depth":0,"parameterNumber":2,"parameterNumberName":"U-component_of_WINDS"},"data":[0,0,0,3.6691,3.6693,3.6819,3.682,3.6987,3.6989,0,0,0,0,0,0,0,0,0,0,0,3.6656,3.6657,3.669,3.6694,3.6819,3.682,3.6987,3.6989,0,0,0,0,0,0,0,0,0,0,0,3.6655,3.6657,3.6658,3.6694,3.6819,3.682,3.6986,3.6889,0,0,0,0,0,0,0,0,0,0,3.6766,3.6737,3.6656,3.6658,3.6695,3.6819,3.682,3.6885,3.6895,3.6932,0,3.6965,0,3.6979,3.7,3.7001,0,0,0,3.6692,3.6728,3.6759,3.6659,3.6696,3.6819,3.6762,3.6891,3.6903,3.6946,3.6967,3.6973,3.6982,3.7001,3.7002,3.7216,3.7217,0,0,3.6685,3.668,3.675,3.6767,3.6747,3.6758,3.6766,3.6898,3.692,3.6968,3.6977,3.6985,3.7002,3.7004,3.7215,3.7216,0,0,0,3.6666,3.6676,3.6704,3.676,3.6782,3.6762,3.6771,3.6914,3.6924,3.6979,3.6987,3.7003,3.7005,3.7214,3.7215,3.7262,0,0,0,3.6662,3.6664,3.6701,3.6699,3.678,3.685,3.6785,3.6915,3.693,3.6986,3.7003,3.7007,3.7212,3.7215,3.7259,3.7285,0,0,0,3.6647,3.6663,3.6682,3.6699,3.6752,3.6848,3.6865,3.6918,3.6935,3.7001,3.7007,3.7212,3.7214,3.7255,3.728,3.7339,0,0,0,3.663,3.6723,3.6682,3.679,3.6751,3.6876,3.6864,3.6958,3.702,3.7004,3.7213,3.7215,3.7254,3.7276,3.7335,3.7387,3.7408,0,0,3.6745,3.6737,3.6801,3.6768,3.6898,3.6857,3.6995,3.7057,3.7069,3.7166,3.7172,3.726,3.7279,3.7338,3.7532,3.7549,0,0,0,3.6836,3.6881,3.6917,3.6975,3.7024,3.7068,3.7109,3.7132,3.7215,3.7118,3.7298,3.731,3.7345,3.737,3.7384,3.7414,3.7227,3.7227,3.7226,3.6992,3.7,3.7106,3.7129,3.7186,3.7227,3.7274,3.7312,3.7305,3.7348,3.7376,3.7493,3.7522,3.7533,3.7563,3.7406,3.7406,3.7406,3.7406,3.716,3.7225,3.7213,3.731,3.7319,3.7402,3.7446,3.7438,3.7516,3.7472,3.7503,3.7453,3.7551,3.7578,3.741,3.7409,3.7409,3.7408,3.7408,3.7262,3.7294,3.732,3.7405,3.7469,3.7491,3.7566,3.7572,3.7578,3.7609,3.7639,3.7638,3.7637,3.7623,3.7623,3.7624,3.7624,3.7624,3.7625,3.7357,3.7384,3.7446,3.7506,3.7543,3.7594,3.7636,3.7674,3.7717,3.7716,3.7716,3.7704,3.7559,3.7522,3.7631,3.763,3.7629,3.7628,3.7628,3.7522,3.7485,3.7581,3.7619,3.7688,3.7751,3.7758,3.7834,3.7867,3.7903,3.7885,3.7778,3.777,3.7759,3.7728,3.7884,3.7884,3.7884,3.7884,3.7606,3.7603,3.7702,3.7761,3.7821,3.7836,3.7944,3.7979,3.8008,3.8029,3.8007,3.7967,3.7956,3.7955,3.7939,3.791,3.8109,3.8109,3.811,3.7708,3.771,3.78,3.7828,3.7883,3.793,3.8032,3.8101,3.8128,3.8119,3.8044,3.8035,3.797,3.7949,3.7937,3.7913,3.786,0,0]},{"header":{"parameterUnit":"m.s-1","parameterCategory":1,"la1":30.2992,"la2":30.254,"lo1":-89.0895,"lo2":-89.0443,"dy":0.0025,"dx":0.0025,"nx":19,"ny":19,"refTime":"2026-03-20T21:00:00:Z","depth":0,"parameterNumber":3,"parameterNumberName":"V-component_of_WINDS"},"data":[0,0,0,2.5773,2.5773,2.5779,2.5779,2.5794,2.5794,0,0,0,0,0,0,0,0,0,0,0,2.5775,2.5776,2.5773,2.5773,2.5779,2.5779,2.5794,2.5794,0,0,0,0,0,0,0,0,0,0,0,2.5775,2.5775,2.5776,2.5773,2.5779,2.5779,2.5794,2.5787,0,0,0,0,0,0,0,0,0,0,2.5779,2.5786,2.5775,2.5776,2.5773,2.5779,2.5779,2.5786,2.5787,2.5794,0,2.5801,0,2.5798,2.5795,2.5795,0,0,0,2.577,2.5785,2.5783,2.5776,2.5773,2.5779,2.5776,2.5787,2.5788,2.5795,2.5801,2.5802,2.5798,2.5795,2.5796,2.5846,2.5846,0,0,2.577,2.5779,2.5782,2.5784,2.5784,2.5776,2.5776,2.5787,2.5794,2.5801,2.5802,2.5798,2.5796,2.5796,2.5845,2.5846,0,0,0,2.5771,2.5779,2.5776,2.5783,2.5784,2.5776,2.5776,2.5794,2.5792,2.5802,2.5798,2.5796,2.5796,2.5845,2.5845,2.5873,0,0,0,2.5771,2.5779,2.5776,2.5782,2.5784,2.5789,2.5783,2.5792,2.5792,2.5798,2.5796,2.5796,2.5844,2.5845,2.5871,2.5885,0,0,0,2.5773,2.5779,2.5782,2.5782,2.5785,2.5789,2.5788,2.5792,2.5791,2.5795,2.5796,2.5844,2.5845,2.587,2.5882,2.5901,0,0,0,2.5779,2.5806,2.5782,2.5811,2.5785,2.5806,2.5788,2.5803,2.581,2.5796,2.5844,2.5845,2.5869,2.5881,2.5899,2.5918,2.5927,0,0,2.5818,2.5811,2.5827,2.5806,2.5834,2.5804,2.5836,2.5834,2.5826,2.5839,2.5841,2.5872,2.5882,2.59,2.5972,2.5979,0,0,0,2.5843,2.5855,2.586,2.5868,2.5867,2.5868,2.586,2.586,2.5871,2.5835,2.5883,2.5889,2.5899,2.5908,2.5914,2.5922,2.585,2.585,2.5849,2.5911,2.5899,2.5926,2.5915,2.5923,2.5915,2.592,2.5918,2.5904,2.5916,2.592,2.5965,2.5975,2.5979,2.5988,2.5929,2.5929,2.5929,2.5929,2.5967,2.5982,2.5963,2.5982,2.597,2.5985,2.5979,2.5969,2.5981,2.5961,2.5969,2.5947,2.5987,2.5994,2.5931,2.5931,2.593,2.593,2.593,2.601,2.6015,2.6014,2.6024,2.6033,2.6022,2.6035,2.6023,2.6013,2.6021,2.6024,2.6024,2.6022,2.6023,2.6024,2.6024,2.6024,2.6024,2.6024,2.6055,2.6053,2.6066,2.6068,2.6071,2.6075,2.6067,2.607,2.6071,2.6061,2.6061,2.6047,2.5993,2.598,2.6026,2.6026,2.6026,2.6025,2.6025,2.6116,2.6101,2.612,2.6124,2.6125,2.6135,2.6121,2.6128,2.6129,2.6136,2.6119,2.6082,2.6074,2.6069,2.6058,2.6121,2.6121,2.6121,2.6121,2.6153,2.6148,2.6165,2.6172,2.6177,2.6166,2.6188,2.6183,2.6175,2.6175,2.6164,2.6148,2.6144,2.6138,2.6132,2.6122,2.62,2.62,2.62,2.619,2.6185,2.6206,2.6198,2.6199,2.6199,2.622,2.6228,2.6216,2.6203,2.6174,2.6171,2.6146,2.6138,2.6125,2.6115,2.6096,0,0]}]]